| time (UTC) | temp F | wind direction | speed MPH | gust MPH | rain 1hr in | rain 24hr in | rain mn in | humidity % | barometer mb |
| 20260502230100 | 60 | 283 | 4.0 | 6.0 | 0.00 | 0.00 | 0.00 | 55 | 1012.3 |
| 20260502224552 | 61 | 259 | 4.0 | 7.0 | 0.00 | 0.00 | 0.00 | 54 | 1012.3 |
| 20260502223059 | 61 | 243 | 4.0 | 9.0 | 0.00 | 0.00 | 0.00 | 53 | 1012.1 |
| 20260502221547 | 62 | 259 | 3.0 | 7.0 | 0.00 | 0.00 | 0.00 | 52 | 1012.2 |
| 20260502220053 | 62 | 265 | 3.0 | 8.0 | 0.00 | 0.00 | 0.00 | 51 | 1012.2 |
| 20260502214548 | 62 | 226 | 3.0 | 7.0 | 0.00 | 0.00 | 0.00 | 50 | 1012.2 |
| 20260502213048 | 62 | 245 | 3.0 | 8.0 | 0.00 | 0.00 | 0.00 | 51 | 1012.3 |
| 20260502211543 | 63 | 236 | 3.0 | 6.0 | 0.00 | 0.00 | 0.00 | 49 | 1012.4 |
| 20260502210042 | 63 | 229 | 4.0 | 7.0 | 0.00 | 0.00 | 0.00 | 48 | 1012.4 |
| 20260502204540 | 64 | 258 | 3.0 | 7.0 | 0.00 | 0.00 | 0.00 | 47 | 1012.6 |
| 20260502203046 | 64 | 263 | 2.0 | 4.0 | 0.00 | 0.00 | 0.00 | 47 | 1012.6 |
| 20260502201541 | 65 | 270 | 2.0 | 5.0 | 0.00 | 0.00 | 0.00 | 47 | 1012.7 |
| 20260502200038 | 66 | 252 | 2.0 | 5.0 | 0.00 | 0.00 | 0.00 | 45 | 1012.9 |
| 20260502194537 | 66 | 276 | 3.0 | 8.0 | 0.00 | 0.00 | 0.00 | 45 | 1013.1 |
| 20260502193052 | 67 | 282 | 3.0 | 9.0 | 0.00 | 0.00 | 0.00 | 45 | 1013.0 |
| 20260502191539 | 67 | 274 | 4.0 | 8.0 | 0.00 | 0.00 | 0.00 | 44 | 1013.0 |
| 20260502190042 | 68 | 238 | 2.0 | 5.0 | 0.00 | 0.00 | 0.00 | 43 | 1012.9 |
| 20260502184544 | 69 | 257 | 1.0 | 3.0 | 0.00 | 0.00 | 0.00 | 43 | 1012.8 |
| 20260502183034 | 69 | 259 | 2.0 | 4.0 | 0.00 | 0.00 | 0.00 | 41 | 1012.8 |
| 20260502181536 | 70 | 269 | 1.0 | 4.0 | 0.00 | 0.00 | 0.00 | 40 | 1012.9 |
| 20260502163025 | 74 | 322 | 6.0 | 15.0 | 0.00 | 0.00 | 0.00 | 32 | 1013.3 |
| 20260502161524 | 74 | 291 | 6.0 | 16.0 | 0.00 | 0.00 | 0.00 | 30 | 1013.5 |
| 20260502151518 | 76 | 269 | 6.0 | 15.0 | 0.00 | 0.00 | 0.00 | 29 | 1013.8 |
| 20260502123056 | 74 | 236 | 10.0 | 16.0 | 0.00 | 0.00 | 0.00 | 35 | 1015.6 |
| 20260502121554 | 73 | 235 | 8.0 | 17.0 | 0.00 | 0.00 | 0.00 | 37 | 1015.8 |
| 20260502114551 | 73 | 238 | 13.0 | 23.0 | 0.00 | 0.00 | 0.00 | 37 | 1016.1 |
| 20260502113101 | 74 | 300 | 6.0 | 13.0 | 0.00 | 0.00 | 0.00 | 37 | 1016.3 |
| 20260502111547 | 73 | 269 | 7.0 | 16.0 | 0.00 | 0.00 | 0.00 | 38 | 1016.4 |
| 20260502110048 | 73 | 247 | 10.0 | 17.0 | 0.00 | 0.00 | 0.00 | 38 | 1016.5 |
| 20260502104543 | 72 | 266 | 6.0 | 15.0 | 0.00 | 0.00 | 0.00 | 40 | 1016.7 |
| 20260502103039 | 72 | 242 | 6.0 | 13.0 | 0.00 | 0.00 | 0.00 | 45 | 1016.8 |
| 20260502101538 | 69 | 197 | 4.0 | 11.0 | 0.00 | 0.00 | 0.00 | 54 | 1017.1 |
| 20260502091527 | 68 | 209 | 8.0 | 13.0 | 0.00 | 0.00 | 0.00 | 54 | 1017.5 |
| 20260502071502 | 62 | 220 | 5.0 | 10.0 | 0.00 | 0.00 | 0.00 | 63 | 1018.5 |
| 20260502070117 | 61 | 236 | 5.0 | 9.0 | 0.00 | 0.00 | 0.00 | 62 | 1018.7 |
| 20260502064556 | 61 | 236 | 4.0 | 8.0 | 0.00 | 0.00 | 0.00 | 63 | 1018.8 |
| 20260502063101 | 59 | 219 | 7.0 | 12.0 | 0.00 | 0.00 | 0.00 | 63 | 1018.9 |
| 20260502061548 | 59 | 231 | 6.0 | 10.0 | 0.00 | 0.00 | 0.00 | 64 | 1019.1 |
| 20260502060046 | 58 | 205 | 6.0 | 10.0 | 0.00 | 0.00 | 0.00 | 64 | 1019.2 |
| 20260502054643 | 57 | 229 | 6.0 | 9.0 | 0.00 | 0.00 | 0.00 | 64 | 1019.4 |
| 20260502053042 | 56 | 224 | 6.0 | 10.0 | 0.00 | 0.00 | 0.00 | 65 | 1019.5 |
| 20260502051537 | 56 | 214 | 6.0 | 9.0 | 0.00 | 0.00 | 0.00 | 65 | 1019.5 |
| 20260502050031 | 55 | 211 | 5.0 | 9.0 | 0.00 | 0.00 | 0.00 | 65 | 1019.7 |
| 20260502044530 | 55 | 221 | 5.0 | 9.0 | 0.00 | 0.00 | 0.00 | 64 | 1019.8 |
| 20260502043027 | 55 | 211 | 5.0 | 9.0 | 0.00 | 0.00 | 0.00 | 63 | 1020.0 |
| 20260502041536 | 54 | 243 | 5.0 | 9.0 | 0.00 | 0.00 | 0.00 | 64 | 1020.0 |
| 20260502040042 | 53 | 217 | 4.0 | 8.0 | 0.00 | 0.00 | 0.00 | 65 | 1020.0 |
| 20260502034520 | 53 | 217 | 5.0 | 9.0 | 0.00 | 0.00 | 0.00 | 64 | 1020.2 |
| 20260502033028 | 54 | 238 | 5.0 | 10.0 | 0.00 | 0.00 | 0.00 | 64 | 1020.4 |
| 20260502031516 | 54 | 239 | 5.0 | 11.0 | 0.00 | 0.00 | 0.00 | 63 | 1020.6 |
| 20260502030015 | 53 | 233 | 4.0 | 11.0 | 0.00 | 0.00 | 0.00 | 64 | 1020.6 |
| 20260502024513 | 53 | 236 | 4.0 | 8.0 | 0.00 | 0.00 | 0.00 | 65 | 1020.8 |
| 20260502023021 | 52 | 231 | 3.0 | 7.0 | 0.00 | 0.00 | 0.00 | 66 | 1021.1 |
| 20260502021508 | 52 | 237 | 2.0 | 6.0 | 0.00 | 0.00 | 0.00 | 66 | 1021.2 |
| 20260502020006 | 51 | 211 | 2.0 | 0.0 | 0.00 | 0.00 | 0.00 | 67 | 1021.3 |
| 20260502014506 | 51 | 216 | 2.0 | 4.0 | 0.00 | 0.00 | 0.00 | 66 | 1021.6 |
| 20260502013004 | 51 | 220 | 3.0 | 4.0 | 0.00 | 0.00 | 0.00 | 67 | 1021.7 |
| 20260502011502 | 51 | 235 | 2.0 | 4.0 | 0.00 | 0.00 | 0.00 | 65 | 1021.8 |
| 20260502004559 | 53 | 215 | 3.0 | 7.0 | 0.00 | 0.00 | 0.00 | 63 | 1022.2 |
| 20260502003057 | 52 | 233 | 3.0 | 6.0 | 0.00 | 0.00 | 0.00 | 65 | 1022.4 |
| 20260502001601 | 51 | 234 | 2.0 | 5.0 | 0.00 | 0.00 | 0.00 | 66 | 1022.6 |
| 20260502000106 | 51 | 229 | 2.0 | 4.0 | 0.00 | 0.00 | 0.00 | 67 | 1022.6 |
| 20260501234552 | 51 | 219 | 2.0 | 3.0 | 0.00 | 0.00 | 0.00 | 66 | 1022.7 |
| 20260501233103 | 52 | 213 | 2.0 | 5.0 | 0.00 | 0.00 | 0.00 | 65 | 1022.9 |
| 20260501231601 | 52 | 225 | 3.0 | 4.0 | 0.00 | 0.00 | 0.00 | 64 | 1022.9 |